RH
53 53 53 53 53 52 50 49 48 49 50 51 51 51 50 48 47 44 42 40 38 37 36 37 37 36 34 33 32 30 27 24 22 21 20 20 20 20 21 20 20 20 20 19 17 16 14 12 12 10 10 9 9 9 8 8 8 7 7 6 5 5 4
63 63 63 62 61 60 58 57 57 57 57 57 56 55 54 51 48 46 44 43 42 41 41 41 40 38 35 32 30 27 25 23 23 23 24 24 24 23 22 19 17 15 14 13 12 11 10 10 9 9 8 8 8 8 7 7 6 6 5 5 4 4 3
70 69 69 68 66 64 63 62 61 61 60 59 58 56 54 52 50 49 48 47 46 45 44 42 39 35 32 29 28 26 25 25 25 24 23 21 19 17 15 13 12 10 10 10 10 10 9 9 9 9 8 8 7 6 6 5 5 4 4 4 3 3 3
68 68 67 66 64 62 61 61 60 58 57 56 56 55 54 54 53 53 52 50 48 45 42 39 36 33 31 29 27 25 23 21 19 18 17 16 14 14 13 12 11 10 9 9 9 10 10 9 9 8 7 6 5 4 4 4 3 3 3 3 3 3 3
64 63 62 61 60 59 59 58 57 56 56 56 56 57 57 57 57 56 54 51 47 44 40 37 34 30 27 23 21 19 17 16 15 15 15 15 14 14 13 12 11 10 10 9 9 9 8 7 6 6 5 4 4 4 4 3 3 3 4 4 4 3 3
67 66 64 62 61 60 61 60 59 58 58 59 60 61 62 61 60 57 54 50 45 40 35 30 25 22 19 17 17 17 16 16 16 15 15 15 14 14 14 13 11 10 9 8 7 6 5 5 5 5 4 4 4 3 3 4 3 4 4 4 4 4 3
79 76 72 69 67 66 66 65 64 64 64 66 67 67 65 62 57 52 47 42 35 29 24 20 18 18 18 18 18 18 17 16 16 16 15 15 14 12 11 10 9 8 7 6 6 5 5 5 5 5 4 4 4 4 3 4 3 4 4 4 4 4 4
89 85 80 77 75 74 73 72 69 67 67 66 65 62 58 53 47 41 35 30 25 21 19 19 20 20 20 20 19 19 18 17 16 15 13 12 10 9 8 8 7 7 7 6 6 6 5 5 5 4 4 4 4 4 3 3 4 4 4 4 4 4 4
89 85 81 78 76 73 70 67 63 60 58 56 54 51 48 44 39 34 29 26 23 22 22 22 23 23 22 21 20 18 17 14 12 11 10 9 9 8 8 8 7 7 7 6 6 6 6 5 5 4 4 4 4 4 4 4 4 4 4 4 4 4 4
74 71 70 69 67 65 61 58 54 52 50 49 48 47 45 42 38 32 29 26 25 25 25 26 25 24 21 19 16 13 11 9 8 8 8 8 8 8 8 7 8 7 6 6 6 6 5 5 5 5 4 4 4 4 4 4 4 4 4 4 5 5 5
65 64 63 63 61 59 56 54 51 49 48 47 46 45 44 41 36 32 30 29 29 28 27 25 22 19 15 13 10 9 8 7 8 8 8 8 8 8 7 7 7 6 6 6 6 6 6 5 5 6 5 5 5 4 4 4 4 4 4 4 5 5 5
64 62 60 59 58 57 56 53 51 50 49 47 45 42 40 37 35 33 33 32 30 27 23 20 16 13 11 10 9 8 8 8 9 9 9 9 9 8 7 6 6 6 5 5 6 6 6 6 6 6 6 5 5 5 5 5 5 5 5 4 5 5 6
61 60 59 58 59 58 56 53 51 49 47 44 41 39 37 36 35 33 32 29 25 21 18 15 13 11 10 10 9 9 10 10 11 11 11 10 9 8 8 7 6 6 6 6 6 6 7 7 6 6 6 6 5 5 5 5 6 6 5 5 5 6 6
62 60 59 59 59 58 55 52 49 47 45 42 39 38 37 35 33 29 26 23 19 16 14 13 12 11 11 11 11 11 12 12 12 12 11 10 9 9 8 8 7 7 7 6 6 6 6 6 6 6 6 6 5 6 6 6 7 6 6 6 7 7 7
64 62 60 59 58 57 54 50 47 45 42 39 37 36 34 31 27 24 21 18 15 13 12 11 11 12 12 13 13 13 12 12 12 12 11 10 10 10 10 10 9 8 8 7 6 6 5 5 5 5 5 5 5 5 5 6 7 7 6 7 8 8 8
64 62 61 59 57 55 52 48 45 42 39 36 34 32 30 26 23 19 17 15 13 12 12 12 13 13 14 13 13 13 12 12 12 12 11 11 10 10 10 10 10 9 8 7 7 6 6 5 5 5 5 5 5 5 5 5 6 6 6 6 7 8 8
63 61 60 58 55 52 49 46 41 38 35 32 30 28 25 21 18 16 15 14 14 14 14 14 14 14 13 13 13 13 13 12 12 11 11 11 11 11 11 11 11 11 10 10 9 9 8 7 6 6 6 5 5 5 5 5 7 7 6 6 6 7 8
62 60 57 54 51 48 45 42 37 34 31 29 26 22 20 17 16 15 15 16 17 16 16 15 14 13 14 14 14 14 13 12 12 11 11 11 12 13 13 13 14 14 14 13 12 11 10 9 7 7 6 5 4 4 4 4 5 6 6 6 6 7 8
60 58 54 50 47 44 41 39 35 31 27 23 21 18 17 17 16 17 17 18 18 17 16 16 15 15 15 15 15 14 13 12 12 12 12 13 13 14 15 15 15 15 14 14 13 12 11 10 9 8 7 7 6 5 5 4 3 4 4 5 6 7 8
55 53 50 48 45 42 39 36 31 26 22 19 18 17 17 18 17 18 19 19 19 18 18 18 18 18 18 17 16 15 14 13 13 14 14 15 15 16 16 16 17 16 15 15 14 14 12 10 9 9 8 8 8 7 7 6 4 4 3 4 4 5 6
52 52 50 47 44 40 35 30 25 21 19 18 18 18 18 18 18 18 19 20 20 20 20 21 21 20 20 19 18 16 16 16 17 17 17 17 17 17 17 17 18 18 17 17 16 15 13 11 10 9 9 8 8 8 8 7 6 5 4 4 4 4 5
53 53 50 44 38 33 28 24 21 19 18 18 19 18 18 18 18 18 20 22 23 22 22 23 23 23 21 20 19 18 19 21 21 21 20 20 19 19 18 18 19 19 19 19 17 16 14 12 11 10 9 9 9 8 8 7 7 6 5 4 4 4 5
52 48 42 36 30 27 24 21 20 19 19 19 18 18 18 19 20 20 22 24 25 24 24 24 24 22 21 20 20 22 23 24 23 22 22 22 22 21 21 20 19 19 18 18 16 15 14 12 11 10 10 10 9 9 8 8 7 7 6 5 4 5 5
43 37 33 29 27 24 22 20 19 19 19 19 18 19 20 21 21 21 22 24 25 25 24 24 22 21 20 21 23 25 25 24 24 24 25 25 26 25 23 20 19 18 17 16 15 14 12 11 10 10 10 10 9 9 9 8 8 7 6 5 5 5 5
33 30 29 27 25 23 21 19 19 19 19 19 20 22 23 23 23 24 25 25 25 24 23 22 22 22 23 25 27 27 27 28 29 30 30 30 29 27 23 20 19 18 17 16 15 13 12 11 10 10 10 9 9 9 9 8 8 7 6 5 5 5 5
29 28 27 26 24 23 20 18 18 19 20 22 23 25 26 27 27 28 28 27 26 25 24 23 24 26 28 30 30 31 33 35 36 35 34 32 30 27 24 21 20 19 18 17 15 14 12 11 10 10 9 9 9 9 8 8 8 8 7 6 5 5 5
28 26 26 26 24 22 20 19 19 21 23 25 26 27 28 30 30 30 29 28 28 27 26 26 28 31 34 36 38 40 41 41 39 37 35 34 31 28 26 23 21 20 19 17 15 14 12 11 10 10 9 9 9 8 8 8 8 8 7 6 5 5 5
26 26 26 26 23 21 21 20 21 25 27 29 30 30 31 31 31 31 30 30 30 30 30 32 36 40 44 47 49 48 46 43 40 38 36 34 32 29 26 23 20 19 18 16 15 13 12 11 10 10 9 9 9 9 8 8 8 8 7 6 6 5 5
26 26 26 25 23 21 22 23 25 28 31 33 33 32 32 31 31 32 33 34 35 37 40 44 49 52 56 58 56 52 48 44 41 38 36 34 32 29 25 22 19 18 18 16 14 13 12 11 10 10 10 10 10 9 9 8 8 7 7 7 6 6 5
26 26 26 25 23 22 24 28 32 33 35 36 35 33 33 33 35 39 41 41 43 47 52 57 60 61 62 60 56 51 47 44 40 38 36 33 31 28 24 21 19 18 18 17 15 13 12 11 10 10 11 10 10 10 9 9 8 7 7 7 6 6 5
27 26 26 25 24 25 27 32 38 40 40 40 38 36 36 37 40 44 46 47 52 57 60 63 64 63 60 57 53 50 46 43 39 37 34 33 30 27 24 21 19 19 18 17 15 13 12 11 10 11 11 11 11 10 10 9 8 7 7 7 7 6 5
27 27 26 25 27 29 32 36 41 44 45 44 43 43 42 42 43 46 50 54 60 63 64 64 63 61 58 54 51 48 44 40 38 35 33 32 30 27 24 21 20 19 18 17 16 14 12 11 11 11 11 12 11 11 10 9 8 7 7 6 6 6 5
27 28 28 27 30 35 41 44 45 46 47 49 51 52 52 49 48 50 55 61 64 65 64 64 62 59 56 52 49 45 41 38 36 34 33 31 29 27 24 22 20 20 19 18 16 14 13 11 11 11 12 13 13 12 10 9 8 7 6 6 6 6 5
29 30 31 32 36 43 48 50 50 51 55 59 62 63 62 59 56 56 60 64 65 65 64 63 60 57 53 50 46 42 39 36 35 34 33 31 29 27 25 23 21 21 21 19 17 15 13 12 11 11 12 13 13 12 9 8 7 6 6 6 6 6 5
30 33 36 40 45 50 52 51 52 55 61 67 68 67 65 62 61 61 63 64 65 65 64 61 58 55 52 48 44 40 38 37 36 35 33 32 30 28 26 24 23 22 22 21 18 16 14 12 11 11 12 13 13 11 9 8 7 6 6 6 6 6 6
30 33 40 47 51 52 50 48 51 55 59 61 61 61 61 62 64 66 68 68 68 67 64 59 56 53 50 46 43 40 39 38 36 34 33 32 31 29 27 25 25 24 23 22 20 17 14 13 12 12 12 12 11 10 9 7 6 6 6 7 7 7 6
Wind_Speed
137 137 138 139 140 140 140 140 140 140 141 141 141 142 142 143 143 143 143 144 144 143 143 143 143 143 142 142 142 142 141 141 141 140 140 140 140 140 140 140 139 137 136 136 137 137 137 136 136 136 135 135 135 135 135 134 134 134 133 133 133 133 132
136 137 137 138 138 139 139 138 138 138 138 138 138 139 140 140 141 142 142 143 143 143 143 143 143 142 141 140 140 140 140 139 139 139 139 140 140 141 141 140 139 137 135 134 133 133 133 133 133 132 132 132 131 130 130 129 129 129 128 128 129 128 127
134 134 134 135 135 136 135 135 135 135 135 135 136 137 138 139 140 140 141 142 142 142 141 141 141 140 140 139 139 139 139 138 138 138 139 139 139 139 139 138 137 135 132 129 128 128 128 128 129 128 128 128 127 127 125 124 124 123 123 123 124 124 123
131 131 131 132 132 132 133 133 133 133 133 133 134 135 136 137 138 138 139 140 140 140 140 140 140 140 139 139 139 138 138 137 136 136 135 135 135 134 133 133 132 131 128 126 124 123 124 124 124 124 124 124 123 123 121 120 118 117 117 118 119 119 119
127 127 128 129 129 129 130 130 131 130 130 130 131 132 133 134 135 136 137 138 139 139 140 140 140 140 140 139 137 136 135 133 132 130 130 129 129 128 128 128 128 127 125 123 121 119 119 119 119 120 120 120 119 118 117 115 114 113 113 113 114 115 116
126 126 126 127 127 128 128 128 128 128 128 128 129 130 131 132 134 135 137 138 139 139 140 140 139 138 137 135 133 131 129 128 126 126 125 125 124 124 124 124 124 123 122 120 118 116 115 114 115 115 116 116 115 113 112 111 110 109 110 109 109 110 112
126 127 127 127 127 127 128 128 127 127 126 127 128 129 130 131 132 134 135 137 138 138 138 136 135 133 131 129 127 126 124 124 123 123 123 122 122 121 120 120 119 119 118 116 115 113 111 111 111 113 113 112 111 110 109 107 105 104 106 106 105 106 109
128 128 128 128 128 128 128 128 127 126 125 126 126 126 127 128 129 131 133 134 135 134 133 131 129 127 126 125 124 123 122 121 121 120 120 119 118 117 115 114 113 113 112 111 110 109 109 108 109 110 110 109 108 107 105 104 102 100 100 101 101 103 106
128 128 128 127 127 127 126 125 124 123 122 121 121 122 122 124 126 128 130 130 130 129 127 126 125 124 124 123 121 120 119 118 117 116 114 113 112 111 110 108 108 108 107 107 106 106 106 106 107 107 107 106 105 104 101 100 99 97 97 97 97 99 103
124 124 123 122 121 120 119 119 118 117 116 116 117 118 119 121 124 126 126 126 125 124 123 123 123 122 121 120 118 116 115 114 112 110 108 107 107 106 105 104 104 103 103 103 102 103 104 104 104 104 104 103 103 101 99 97 96 94 94 93 93 95 99
115 114 113 112 112 112 112 112 112 112 112 113 114 116 117 119 122 123 123 123 122 122 122 121 121 120 118 116 114 112 111 109 107 105 104 103 103 103 102 102 101 101 100 99 99 99 100 100 100 100 102 102 100 98 96 95 94 92 91 91 91 91 95
105 105 105 105 106 107 107 108 109 109 110 112 114 116 117 118 119 120 121 121 121 120 119 119 117 116 114 112 109 108 107 105 104 103 102 102 102 102 102 102 101 99 97 96 96 96 97 97 96 96 98 99 97 95 93 92 92 91 90 89 89 89 91
101 101 102 102 103 104 106 107 108 109 111 113 114 116 116 117 118 118 119 119 117 116 115 114 113 110 108 107 105 104 102 102 101 101 100 100 100 101 101 101 101 99 96 95 94 93 93 94 94 92 94 96 94 91 89 88 87 88 89 87 87 87 89
98 99 100 101 102 104 106 108 109 110 112 114 114 115 116 116 116 116 116 115 114 112 110 109 107 104 103 102 101 100 99 99 98 98 97 98 98 98 99 99 99 98 97 95 93 92 91 91 91 90 90 91 90 86 84 82 83 84 85 84 85 87 89
97 98 100 101 103 106 108 110 111 112 113 114 114 114 115 114 114 114 113 111 109 107 105 103 101 99 98 98 97 97 97 96 96 95 95 95 95 96 96 96 96 96 95 95 93 92 90 89 89 88 88 87 85 82 79 78 79 81 81 81 81 84 88
97 99 102 104 106 108 110 112 113 113 114 113 113 113 112 112 111 109 108 106 105 102 100 98 97 96 95 95 94 94 94 93 93 93 93 93 93 93 92 92 93 93 93 93 92 91 90 88 88 88 88 87 84 80 77 76 77 80 79 78 78 81 85
100 102 104 106 108 109 112 114 114 113 113 112 111 110 109 108 106 104 102 101 100 98 96 96 95 93 92 91 91 91 91 91 91 91 91 90 90 90 90 90 90 90 90 91 91 91 90 89 89 89 89 88 85 80 75 71 72 76 78 77 76 77 80
103 105 106 108 109 111 112 114 114 112 111 109 108 106 104 102 100 98 97 96 95 95 94 93 92 90 89 88 89 89 89 90 90 89 89 88 86 86 87 87 87 87 87 88 88 89 89 89 89 89 89 88 86 83 77 70 66 68 71 72 72 72 75
104 107 109 110 111 111 112 112 112 110 107 105 103 101 98 96 94 92 91 91 91 91 91 90 88 87 86 86 87 88 88 88 88 87 87 85 84 84 84 84 85 85 84 84 84 85 85 85 85 85 85 86 85 84 81 76 70 66 65 66 66 67 70
106 108 110 111 111 111 110 109 108 106 102 99 97 95 93 91 89 87 86 86 87 87 86 86 85 84 84 85 85 86 87 87 86 86 85 84 83 82 82 82 82 82 82 82 82 82 82 82 82 82 82 82 82 81 80 78 76 72 68 66 64 63 65
107 109 110 111 110 109 107 105 103 100 97 94 92 91 89 86 84 82 82 82 83 82 82 82 81 81 82 83 84 85 85 85 84 84 83 82 81 80 79 79 79 80 80 80 80 80 81 81 81 81 80 80 79 79 77 75 74 74 72 69 66 63 64
107 108 109 109 108 105 103 100 97 95 92 90 88 87 85 82 80 78 78 78 79 79 79 78 78 79 80 81 82 82 82 81 81 81 81 80 79 78 77 77 77 77 78 79 79 79 80 80 79 79 79 79 78 78 77 74 72 72 72 71 68 65 64
106 106 106 105 103 100 97 94 92 90 87 86 85 83 81 78 76 75 75 75 75 75 76 76 76 77 78 78 78 78 78 78 79 79 78 78 77 77 77 77 77 77 77 77 78 78 78 78 77 77 77 78 77 77 77 74 72 71 71 70 69 67 66
104 102 101 99 98 96 92 89 87 85 84 83 81 79 77 75 74 73 73 72 73 73 74 74 75 76 76 75 75 75 75 76 76 76 77 77 77 78 78 77 77 77 77 77 77 77 77 76 76 76 76 76 76 76 76 75 73 71 70 68 68 67 67
99 97 95 94 93 91 89 86 83 81 79 78 77 75 74 73 72 72 71 71 72 72 73 73 74 73 72 72 72 72 73 74 75 75 76 77 78 78 79 78 77 77 78 78 78 78 77 77 76 76 76 76 76 76 75 74 73 72 70 68 67 67 66
94 92 90 89 88 87 85 82 79 77 75 74 72 72 71 70 70 70 70 70 71 71 72 72 71 70 69 69 70 71 72 73 74 75 76 77 78 79 79 79 78 78 78 79 79 79 78 78 77 76 76 75 75 75 74 73 72 71 70 68 67 66 66
89 87 85 85 84 83 81 79 76 73 72 71 70 69 68 67 67 67 68 68 69 70 70 70 69 68 68 69 70 71 72 73 74 75 76 77 78 79 79 79 78 78 78 79 79 78 78 77 77 76 75 75 75 75 74 72 70 69 68 67 66 65 64
84 83 82 82 81 79 77 75 73 70 69 68 68 67 67 66 66 66 66 67 68 69 69 68 67 67 68 69 70 71 73 73 74 75 75 76 77 79 79 79 78 77 78 79 78 78 77 77 76 76 75 75 74 73 73 71 69 67 66 65 65 64 63
80 79 78 78 77 74 73 72 70 68 67 66 65 65 65 65 65 65 66 66 67 67 66 66 67 67 68 69 70 71 72 73 73 74 75 76 77 79 79 79 78 77 78 80 79 78 77 76 75 75 74 74 73 72 71 70 68 66 64 63 63 62 61
76 75 75 74 73 71 69 68 68 67 65 64 64 63 63 63 63 63 64 64 65 64 64 64 65 66 67 68 69 70 71 72 72 73 75 76 78 79 80 79 78 78 79 80 80 79 77 76 74 73 73 72 71 70 69 68 67 65 63 61 61 61 60
73 72 71 71 70 68 66 64 64 64 63 63 62 61 61 61 61 61 62 62 62 62 63 63 64 65 66 67 68 69 70 71 72 73 74 76 78 80 80 80 79 79 79 80 80 79 77 75 73 72 71 69 69 68 67 67 66 65 62 60 59 59 60
69 69 68 67 66 65 64 62 60 60 60 60 60 60 60 61 60 60 60 60 60 61 62 62 63 64 65 66 68 69 70 70 71 73 75 77 79 80 81 81 80 79 79 79 80 78 76 74 72 69 68 68 67 66 66 65 65 64 61 59 58 58 59
66 66 66 64 63 62 60 59 58 58 57 57 57 58 59 60 60 59 58 58 59 60 60 61 62 63 65 66 67 68 69 70 72 73 75 77 79 80 81 81 80 80 79 79 79 78 76 73 70 67 66 66 66 65 65 64 64 62 60 59 57 57 58
63 63 63 62 60 58 56 56 55 55 54 54 55 56 57 59 59 58 57 57 57 58 59 60 61 63 65 66 67 68 69 70 72 74 76 77 79 80 81 81 80 79 79 79 79 78 75 73 70 66 64 64 64 64 64 63 62 61 60 58 57 56 57
60 59 60 58 56 55 53 53 52 52 51 52 53 54 56 56 57 57 57 56 56 56 57 59 61 63 64 66 67 68 70 71 73 75 76 77 78 80 80 80 80 79 78 78 78 77 75 73 70 66 64 63 63 63 63 62 61 60 59 57 56 55 55
57 56 55 54 53 53 52 51 51 51 52 52 53 53 54 54 55 55 56 56 56 56 58 60 61 62 64 66 67 69 71 72 73 74 75 76 77 79 79 79 79 78 77 77 77 77 76 74 71 68 65 64 63 63 63 62 61 59 58 57 55 54 54
Wind_Direction
276 276 277 277 278 278 278 279 279 280 280 281 281 281 282 282 282 282 282 283 283 284 284 284 284 284 284 284 284 284 284 284 284 285 285 286 286 286 286 286 286 285 285 285 285 285 284 284 284 283 283 283 283 282 282 282 282 281 281 281 280 280 279
277 277 277 278 278 279 279 280 280 281 281 282 282 282 282 283 283 283 284 284 284 285 285 285 285 284 284 284 284 284 285 285 286 287 287 287 287 287 287 286 286 286 285 285 285 285 285 284 284 284 283 283 283 282 282 282 281 281 281 281 281 280 280
277 278 278 279 279 280 280 281 281 281 281 282 282 282 283 283 284 284 284 285 285 285 285 285 285 285 285 285 285 286 286 287 287 288 288 288 287 287 287 287 286 286 286 286 285 285 285 285 285 284 284 283 283 282 282 281 281 282 282 281 281 281 280
278 278 279 279 280 280 280 280 281 281 281 282 282 283 284 284 285 285 285 285 285 285 285 285 285 285 286 286 287 287 288 288 288 288 288 288 287 287 287 287 287 287 287 286 286 286 286 285 285 285 284 283 283 282 282 282 282 282 282 282 282 281 281
279 279 279 279 280 280 280 281 281 282 282 283 283 284 285 285 285 285 285 285 285 285 285 286 286 286 287 288 288 289 289 289 289 289 288 288 288 288 288 288 288 288 288 287 287 286 286 285 285 284 284 283 283 283 283 283 283 283 283 282 282 283 282
280 280 280 280 280 281 281 282 282 283 284 284 285 285 286 286 286 285 285 285 285 286 286 286 287 288 289 289 290 290 290 290 289 289 289 289 289 289 289 289 289 288 288 288 287 286 286 285 285 284 284 283 283 283 283 283 284 284 284 283 283 283 283
281 281 281 281 282 282 283 283 284 285 285 286 286 286 286 286 286 286 286 286 286 286 287 288 289 290 290 290 290 290 290 290 290 290 290 290 289 289 289 289 289 289 288 288 288 287 287 286 285 284 284 284 284 284 284 284 284 284 285 284 284 283 283
281 281 282 283 283 284 284 285 285 286 286 286 286 286 286 286 286 286 286 286 287 288 289 290 291 291 291 291 291 291 291 291 291 290 290 290 290 290 289 289 288 288 288 288 288 288 287 286 286 285 285 285 285 285 285 285 285 285 285 284 284 284 283
281 282 283 283 284 285 285 286 286 286 286 286 286 286 286 286 286 286 286 287 288 290 291 292 292 292 291 291 291 291 291 291 291 290 290 290 289 289 288 288 288 287 287 287 288 287 287 287 286 286 286 286 286 286 286 286 286 286 285 285 285 284 283
282 283 284 284 285 285 286 286 286 286 286 286 286 286 286 287 287 287 288 289 291 292 292 292 292 292 292 291 291 291 291 290 290 290 290 289 289 288 288 287 287 287 287 287 288 287 287 287 287 287 287 287 287 287 287 287 287 287 286 286 285 285 284
283 284 285 285 286 286 286 286 286 286 287 287 287 287 287 287 288 289 291 292 292 292 293 292 292 292 292 292 292 292 292 291 291 291 291 290 290 289 289 288 288 288 288 288 288 288 288 288 288 288 288 288 288 288 288 288 288 287 286 286 285 284 284
285 286 286 287 287 287 287 287 287 287 287 287 287 287 288 289 290 291 292 293 293 293 293 293 293 293 294 294 294 293 293 293 293 293 293 292 292 291 291 290 289 289 289 289 289 288 288 288 288 288 288 288 288 288 289 289 289 288 287 286 285 284 283
287 288 288 288 288 288 288 288 288 288 288 288 288 289 290 291 292 293 293 293 293 294 294 294 294 294 295 295 294 294 294 294 294 294 294 293 292 292 291 291 291 291 290 290 289 289 288 288 288 288 287 287 287 288 288 288 288 288 287 286 285 284 282
288 288 288 288 288 289 288 288 288 288 288 289 290 291 292 293 293 294 294 294 294 294 294 294 294 295 295 294 294 294 294 294 293 293 292 292 292 291 291 292 292 292 292 291 290 290 289 288 288 287 287 287 287 287 288 288 287 287 286 286 286 285 283
289 289 289 289 289 289 289 289 289 289 290 291 292 293 294 295 295 295 295 295 294 294 294 294 294 294 294 294 294 294 293 293 292 292 291 291 291 291 291 292 292 293 293 292 292 291 290 290 289 288 287 287 287 287 287 287 286 285 285 285 284 283 283
289 289 289 289 289 289 290 290 290 291 292 293 294 295 295 295 295 295 295 295 295 295 295 295 294 294 294 294 293 293 292 291 291 290 290 291 291 292 292 292 293 293 294 294 294 294 294 293 292 291 291 290 289 289 289 289 287 286 284 283 282 281 281
290 290 290 290 290 290 290 291 292 293 294 295 296 296 296 296 295 295 295 295 295 295 295 294 294 294 293 293 292 291 291 290 290 290 291 292 293 293 294 295 295 296 296 297 297 297 296 296 295 294 293 292 291 289 288 287 287 286 285 284 283 281 281
291 291 290 291 291 291 292 293 294 295 296 296 296 296 296 295 295 295 295 296 296 295 295 294 294 294 293 292 291 291 290 290 291 291 292 293 294 295 295 296 296 297 297 297 297 296 296 296 295 295 294 294 293 291 289 285 282 282 282 283 282 282 281
292 292 292 292 292 293 293 294 295 296 296 296 296 296 295 295 295 295 296 296 295 294 294 293 293 293 293 292 291 291 291 292 292 293 294 295 295 295 296 296 296 296 296 296 296 296 296 296 296 296 296 296 296 296 295 291 287 282 280 279 279 279 280
293 293 293 293 293 294 295 296 296 296 296 296 296 295 295 295 296 296 296 295 294 293 293 293 293 293 292 292 292 292 293 294 294 295 295 296 296 296 296 297 297 297 297 297 297 298 297 297 297 297 297 297 297 297 297 296 293 289 285 281 279 277 277
294 294 294 294 295 295 296 296 296 296 296 296 296 295 295 296 296 296 295 293 292 292 292 292 292 292 292 292 292 293 294 295 295 296 296 296 297 297 297 298 298 298 299 299 299 299 299 298 298 298 298 297 297 297 296 296 295 293 290 287 284 281 279
295 295 295 296 296 296 296 296 296 296 296 296 296 296 296 297 296 295 293 292 292 292 292 291 291 291 291 292 293 294 295 295 296 296 297 297 298 298 298 299 299 300 300 300 300 300 299 299 299 299 299 299 298 297 297 296 295 293 291 289 287 286 284
296 296 296 297 297 297 297 297 297 297 297 297 296 297 297 296 295 293 292 291 291 291 290 290 290 291 291 292 293 294 295 295 296 297 298 299 300 300 300 300 300 300 300 300 300 300 300 300 300 300 299 299 299 298 298 297 296 294 292 291 290 289 287
296 297 297 297 297 297 297 297 297 297 297 297 297 297 296 295 294 293 292 291 290 290 290 290 290 291 292 293 295 295 296 297 298 299 301 302 302 302 302 301 301 301 301 301 301 301 301 301 301 301 300 300 300 299 299 298 297 295 294 292 291 291 289
297 298 298 297 297 297 297 297 297 298 297 297 297 296 295 294 294 293 292 291 291 290 290 291 291 293 294 296 297 298 299 300 301 302 303 303 303 303 303 303 303 304 304 304 304 304 303 303 303 302 302 302 301 300 299 299 298 297 295 294 292 291 290
298 298 298 297 297 297 297 297 298 298 297 296 296 295 295 294 294 293 293 292 292 292 292 293 294 296 298 299 299 301 302 303 303 304 304 304 304 304 304 305 305 306 306 306 306 305 305 304 304 303 303 303 302 300 299 299 299 298 296 295 294 292 291
298 299 298 297 297 297 297 298 298 298 297 296 295 295 294 294 294 293 293 292 292 293 294 296 298 300 301 302 303 303 304 304 304 304 305 305 305 306 306 306 307 307 307 306 306 306 305 305 305 304 304 303 302 301 300 299 299 298 297 296 294 293 292
299 299 298 297 297 297 298 298 298 298 297 296 295 295 294 294 293 293 293 293 294 296 298 300 302 303 304 304 304 304 304 305 305 305 306 307 307 307 306 307 307 308 307 307 306 306 306 306 306 305 305 304 304 302 301 300 300 299 298 297 295 294 294
299 298 297 296 297 297 298 298 298 297 296 295 295 295 294 294 294 294 295 296 297 299 302 303 303 304 304 304 304 304 304 305 306 306 307 308 308 307 307 307 308 309 309 308 308 307 307 307 306 306 306 305 305 303 302 301 300 299 298 298 297 295 294
299 298 297 296 297 297 298 298 297 296 296 295 295 294 294 294 294 295 296 297 299 301 302 302 302 302 302 302 303 304 305 306 307 308 309 309 309 308 308 309 310 310 310 309 308 308 308 307 307 307 307 306 305 304 303 301 300 299 299 298 297 296 295
298 297 296 296 297 297 297 297 296 296 295 295 295 294 294 294 294 295 296 298 299 300 300 300 300 301 301 302 303 304 305 307 308 309 309 310 310 309 310 310 311 311 311 310 309 309 308 308 307 308 308 307 306 305 303 302 300 299 299 299 298 296 295
297 296 296 296 296 297 297 296 295 294 294 294 293 293 293 293 294 295 296 298 298 298 298 299 300 301 302 303 304 305 307 308 309 310 311 311 311 311 311 311 312 312 312 311 310 309 309 308 308 309 309 308 307 305 304 302 301 300 299 299 298 297 295
296 295 295 296 296 296 296 295 294 293 292 292 292 292 292 293 294 296 297 297 297 297 298 299 300 301 302 304 305 307 308 309 310 311 312 312 312 311 311 312 313 313 313 311 310 310 310 309 309 309 310 310 308 307 305 303 301 300 300 300 299 297 295
296 295 295 296 296 295 294 293 291 291 290 290 290 290 291 292 294 295 295 295 296 297 299 300 301 302 304 305 307 308 310 311 312 313 313 313 312 312 312 313 314 314 313 312 311 311 310 310 309 310 311 311 310 308 306 304 302 302 301 301 300 298 296
295 295 295 295 294 292 290 288 287 286 286 286 286 287 289 291 293 294 295 295 297 299 300 301 302 304 306 308 309 310 311 312 313 313 313 313 313 312 313 314 314 315 314 313 312 312 311 311 311 311 312 312 312 310 308 305 303 303 303 303 302 300 297
294 294 294 293 291 288 286 285 284 283 283 284 286 288 290 292 294 295 296 298 300 301 302 303 305 307 308 310 311 312 313 313 314 314 314 313 313 313 313 314 315 315 315 314 313 313 312 312 312 313 313 314 313 312 310 307 305 304 304 305 304 302 299